Weather History for KSBY - February, 2013

Change the Weather History Date:

Tuesday, February 26, 2013

  Actual Average Record
Temperature  
Mean Temperature 42 °F 40 °F  
Max Temperature 56 °F 50 °F 73 °F (1930)
Min Temperature 28 °F 30 °F 12 °F (1970)
Degree Days  
Heating Degree Days 23 25  
Month to date heating degree days 680 715  
Since 1 July heating degree days 2744 3256  
Cooling Degree Days 0 0  
Month to date cooling degree days 0 0  
Year to date cooling degree days 0 0  
Moisture  
Dew Point 40 °F    
Average Humidity 74    
Maximum Humidity 86    
Minimum Humidity 61    
Precipitation  
Precipitation 0.53 in 0.12 in 1.28 in (1979)
Month to date precipitation 3.66 3.10  
Year to date precipitation 6.66 6.71  
Snow  
Snow 0.00 in 0.10 in 5.00 in (1993)
Month to date snowfall T 3.1  
Since 1 July snowfall 2.8 8.1  
Snow Depth 0.00 in    
Sea Level Pressure  
Sea Level Pressure 29.96 in    
Wind  
Wind Speed 11 mph (East)    
Max Wind Speed 30 mph    
Max Gust Speed 38 mph    
Visibility 8 miles    
Events Rain    
T = Trace of Precipitation, MM = Missing Value Source: NWS Daily Summary

Daily Weather History Graph

Daily Weather History Graph

Search for Another Location

Airport or City:

Trip Planner

Search our weather history database for the weather conditions in past years. The results will help you decide how hot, cold, wet, or windy it might be!

Date:

Astronomy

Feb. 26, 2013 Rise Set
Actual Time 6:37 AM EST 5:52 PM EST
Civil Twilight 6:11 AM EST 6:19 PM EST
Nautical Twilight 5:40 AM EST 6:49 PM EST
Astronomical Twilight 5:10 AM EST 7:20 PM EST
Moon 7:04 PM EST (2/26) 6:40 AM EST (2/26)
Length of Visible Light 12h 07m
Length of Day
11h 14m
Full, 99% of the Moon is Illuminated
Feb 26
Full
Mar 4
Last Quarter
Mar 11
New
Mar 19
First Quarter
Mar 27
Full

Hourly Weather History & Observations

Time (EST) Temp. Windchill Dew Point Humidity Pressure Visibility Wind Dir Wind Speed Gust Speed Precip Events Conditions
12:54 AM 28.9 °F 25.2 °F 24.1 °F 82% 30.23 in 9.0 mi NE 3.5 mph - N/A   Clear
1:54 AM 28.9 °F - 24.1 °F 82% 30.25 in 9.0 mi Calm Calm - N/A   Clear
2:54 AM 28.0 °F - 23.0 °F 81% 30.23 in 8.0 mi Calm Calm - N/A   Clear
3:54 AM 28.9 °F - 23.0 °F 78% 30.20 in 9.0 mi Calm Calm - N/A   Clear
4:54 AM 30.0 °F - 25.0 °F 82% 30.20 in 9.0 mi Calm Calm - N/A   Clear
5:54 AM 32.0 °F 28.7 °F 26.1 °F 79% 30.20 in 9.0 mi ENE 3.5 mph - N/A   Clear
6:54 AM 33.1 °F 28.7 °F 27.0 °F 78% 30.21 in 7.0 mi ENE 4.6 mph - N/A   Clear
7:54 AM 35.1 °F 30.1 °F 30.0 °F 82% 30.20 in 6.0 mi ENE 5.8 mph - N/A   Haze
8:54 AM 37.9 °F 30.9 °F 33.1 °F 83% 30.20 in 7.0 mi ENE 10.4 mph - N/A   Clear
9:54 AM 43.0 °F 37.7 °F 35.1 °F 74% 30.19 in 10.0 mi ENE 9.2 mph - N/A   Clear
10:54 AM 46.9 °F - 36.0 °F 66% 30.17 in 10.0 mi East 9.2 mph - N/A   Clear
11:54 AM 48.0 °F - 36.0 °F 63% 30.14 in 10.0 mi ENE 12.7 mph - N/A   Partly Cloudy
12:54 PM 50.0 °F - 37.9 °F 63% 30.10 in 10.0 mi East 13.8 mph 20.7 mph N/A   Overcast
1:40 PM 50.0 °F - 39.2 °F 66% 30.05 in 10.0 mi East 16.1 mph - N/A   Overcast
1:54 PM 50.0 °F - 39.9 °F 68% 30.06 in 10.0 mi East 15.0 mph 21.9 mph N/A   Overcast
2:54 PM 50.0 °F - 39.9 °F 68% 30.03 in 10.0 mi East 15.0 mph 21.9 mph N/A   Overcast
3:54 PM 48.9 °F - 42.1 °F 77% 29.99 in 9.0 mi East 17.3 mph 36.8 mph 0.00 in Rain Light Rain
4:54 PM 48.0 °F - 42.1 °F 80% 29.93 in 10.0 mi East 16.1 mph 24.2 mph 0.01 in Rain Light Rain
5:20 PM 48.2 °F - 42.8 °F 82% 29.90 in 6.0 mi East 19.6 mph 25.3 mph 0.01 in Rain Light Rain
5:54 PM 48.9 °F - 44.1 °F 83% 29.87 in 10.0 mi East 23.0 mph 33.4 mph 0.02 in Rain Light Rain
6:03 PM 48.2 °F - 44.6 °F 87% 29.84 in 10.0 mi East 23.0 mph 35.7 mph 0.00 in Rain Light Rain
6:54 PM 50.0 °F - 46.0 °F 86% 29.79 in 4.0 mi East 24.2 mph 35.7 mph 0.03 in Rain Rain
7:54 PM 51.1 °F - 46.9 °F 86% 29.78 in 4.0 mi East 13.8 mph 25.3 mph 0.10 in Rain Rain
8:54 PM 53.1 °F - 48.9 °F 86% 29.70 in 6.0 mi East 21.9 mph 34.5 mph 0.05 in Rain Light Rain
9:37 PM 55.4 °F - 51.8 °F 88% 29.67 in 2.5 mi East 23.0 mph 36.8 mph 0.08 in Rain Rain
9:51 PM 55.4 °F - 51.8 °F 88% 29.66 in 3.0 mi East 21.9 mph 36.8 mph 0.13 in Rain Rain
9:54 PM 55.0 °F - 51.1 °F 86% 29.68 in 2.5 mi ESE 21.9 mph 33.4 mph 0.14 in Rain Rain
10:21 PM 55.4 °F - 51.8 °F 88% 29.67 in 4.0 mi ESE 16.1 mph 26.5 mph 0.10 in Rain Light Rain
10:33 PM 55.4 °F - 51.8 °F 88% 29.67 in 7.0 mi SE 9.2 mph 24.2 mph 0.11 in Rain Light Rain
10:54 PM 55.9 °F - 52.0 °F 87% 29.65 in 5.0 mi SE 18.4 mph 27.6 mph 0.17 in Rain Light Rain
11:06 PM 55.4 °F - 51.8 °F 88% 29.63 in 8.0 mi SE 11.5 mph 24.2 mph 0.01 in Rain Light Rain
11:54 PM 55.9 °F - 52.0 °F 87% 29.58 in 10.0 mi ESE 12.7 mph 21.9 mph 0.01 in   Overcast